TimeEDT,TemperatureF,Dew PointF,Humidity,Sea Level PressureIn,VisibilityMPH,Wind Direction,Wind SpeedMPH,Gust SpeedMPH,PrecipitationIn,Events,Conditions,WindDirDegrees,DateUTC
12:54 AM,55.0,46.0,72,29.96,10.0,NW,6.9,-,N/A,,Clear,320,2012-09-30 04:54:00
1:54 AM,55.0,46.0,72,29.96,10.0,Calm,Calm,-,N/A,,Partly Cloudy,0,2012-09-30 05:54:00
2:54 AM,53.1,46.0,77,29.95,10.0,Calm,Calm,-,N/A,,Clear,0,2012-09-30 06:54:00
3:54 AM,51.1,46.0,83,29.95,10.0,Calm,Calm,-,N/A,,Clear,0,2012-09-30 07:54:00
4:54 AM,48.9,45.0,86,29.96,10.0,Calm,Calm,-,N/A,,Clear,0,2012-09-30 08:54:00
5:54 AM,46.0,44.1,93,29.96,10.0,West,3.5,-,N/A,,Clear,280,2012-09-30 09:54:00
6:54 AM,48.0,44.1,86,29.96,10.0,Calm,Calm,-,N/A,,Clear,0,2012-09-30 10:54:00
7:54 AM,50.0,45.0,83,29.97,10.0,Calm,Calm,-,N/A,,Clear,0,2012-09-30 11:54:00
8:54 AM,53.1,46.9,80,29.96,10.0,Calm,Calm,-,N/A,,Clear,0,2012-09-30 12:54:00
9:54 AM,57.2,46.4,67,29.97,10.0,WSW,8.1,-,N/A,,Clear,250,2012-09-30 13:54:00
10:54 AM,63.0,46.0,54,29.95,10.0,WNW,6.9,-,N/A,,Clear,290,2012-09-30 14:54:00
11:54 AM,66.9,44.1,44,29.93,10.0,SW,3.5,-,N/A,,Clear,230,2012-09-30 15:54:00
12:54 PM,70.0,44.1,39,29.91,10.0,Variable,6.9,-,N/A,,Scattered Clouds,0,2012-09-30 16:54:00
1:54 PM,71.1,45.0,39,29.88,10.0,Calm,Calm,-,N/A,,Scattered Clouds,0,2012-09-30 17:54:00
2:54 PM,73.9,45.0,35,29.86,10.0,NW,8.1,-,N/A,,Scattered Clouds,320,2012-09-30 18:54:00
3:54 PM,71.1,43.0,36,29.85,10.0,Calm,Calm,-,N/A,,Scattered Clouds,0,2012-09-30 19:54:00
4:54 PM,72.0,44.1,37,29.85,10.0,Calm,Calm,-,N/A,,Scattered Clouds,0,2012-09-30 20:54:00
5:54 PM,73.0,46.0,38,29.86,10.0,WNW,3.5,-,N/A,,Partly Cloudy,290,2012-09-30 21:54:00
6:54 PM,69.1,45.0,42,29.86,10.0,Calm,Calm,-,N/A,,Partly Cloudy,0,2012-09-30 22:54:00
7:54 PM,64.9,51.1,61,29.88,10.0,ESE,4.6,-,N/A,,Clear,120,2012-09-30 23:54:00
8:54 PM,63.0,52.0,67,29.90,10.0,East,5.8,-,N/A,,Clear,100,2012-10-01 00:54:00
9:54 PM,61.0,52.0,72,29.91,10.0,Calm,Calm,-,N/A,,Clear,0,2012-10-01 01:54:00
10:54 PM,57.0,52.0,83,29.91,10.0,Calm,Calm,-,N/A,,Clear,0,2012-10-01 02:54:00
11:54 PM,57.0,52.0,83,29.92,10.0,Calm,Calm,-,N/A,,Clear,0,2012-10-01 03:54:00